contact:dominique.lefevre@mio.osupytheas.fr, maurice.libes@osupytheas.fr, didier.mallarino@osupytheas.fr
Project:EMSO http://www.emso-fr.org/EMSO-France
Depth: 2436.0 m
Title:EMSO Ligure Ouest : Data MII capteur MICROCAT
DateTime_Computer,Latitude,Longitude,Temperature,Conductivity,Pressure,DateTime_Instrument
DateTime_Computer,Latitude,Longitude,degC,S m-1,dbar,DateTime_Instrument
2021-10-09T00:02:28Z,42.805,6.029,13.3012,4.60052,2470.38,2021-10-09T02:03:51Z
2021-10-09T00:05:31Z,42.805,6.029,13.3006,4.60057,2470.39,2021-10-09T02:06:54Z
2021-10-09T00:08:34Z,42.805,6.029,13.3007,4.60042,2470.404,2021-10-09T02:09:57Z
2021-10-09T00:11:37Z,42.805,6.029,13.3008,4.60044,2470.366,2021-10-09T02:13:00Z
2021-10-09T00:14:40Z,42.805,6.029,13.3009,4.60042,2470.343,2021-10-09T02:16:03Z
2021-10-09T00:17:43Z,42.805,6.029,13.3006,4.60041,2470.343,2021-10-09T02:19:06Z
2021-10-09T00:20:47Z,42.805,6.029,13.3005,4.60029,2470.366,2021-10-09T02:22:10Z
2021-10-09T00:23:50Z,42.805,6.029,13.3011,4.60039,2470.366,2021-10-09T02:25:13Z
2021-10-09T00:26:53Z,42.805,6.029,13.3004,4.60047,2470.366,2021-10-09T02:28:16Z
2021-10-09T00:29:56Z,42.805,6.029,13.3009,4.60035,2470.343,2021-10-09T02:31:19Z
2021-10-09T00:32:59Z,42.805,6.029,13.3006,4.60042,2470.366,2021-10-09T02:34:22Z
2021-10-09T00:36:02Z,42.805,6.029,13.3004,4.60033,2470.39,2021-10-09T02:37:25Z
2021-10-09T00:39:05Z,42.805,6.029,13.3003,4.60032,2470.343,2021-10-09T02:40:28Z
2021-10-09T00:42:08Z,42.805,6.029,13.3011,4.60038,2470.334,2021-10-09T02:43:31Z
2021-10-09T00:45:12Z,42.805,6.029,13.3006,4.60033,2470.334,2021-10-09T02:46:35Z
2021-10-09T00:48:15Z,42.805,6.029,13.2996,4.60037,2470.343,2021-10-09T02:49:38Z
2021-10-09T00:51:18Z,42.805,6.029,13.2998,4.60044,2470.357,2021-10-09T02:52:41Z
2021-10-09T00:54:21Z,42.805,6.029,13.2999,4.60033,2470.297,2021-10-09T02:55:44Z
2021-10-09T00:57:24Z,42.805,6.029,13.3007,4.60033,2470.343,2021-10-09T02:58:47Z
2021-10-09T01:00:27Z,42.805,6.029,13.3000,4.60035,2470.334,2021-10-09T03:01:50Z
2021-10-09T01:03:30Z,42.805,6.029,13.3013,4.60044,2470.357,2021-10-09T03:04:53Z
2021-10-09T01:06:33Z,42.805,6.029,13.3006,4.60039,2470.357,2021-10-09T03:07:56Z
2021-10-09T01:09:37Z,42.805,6.029,13.3011,4.60044,2470.32,2021-10-09T03:10:59Z
2021-10-09T01:12:40Z,42.805,6.029,13.3006,4.60039,2470.357,2021-10-09T03:14:03Z
2021-10-09T01:15:43Z,42.805,6.029,13.3008,4.60046,2470.297,2021-10-09T03:17:06Z
2021-10-09T01:18:46Z,42.805,6.029,13.3003,4.60033,2470.297,2021-10-09T03:20:09Z
2021-10-09T01:21:49Z,42.805,6.029,13.3007,4.60031,2470.32,2021-10-09T03:23:12Z
2021-10-09T01:24:52Z,42.805,6.029,13.3005,4.60032,2470.343,2021-10-09T03:26:15Z
2021-10-09T01:27:55Z,42.805,6.029,13.3004,4.60039,2470.31,2021-10-09T03:29:18Z
2021-10-09T01:30:58Z,42.805,6.029,13.3004,4.60031,2470.297,2021-10-09T03:32:21Z
2021-10-09T01:34:01Z,42.805,6.029,13.3006,4.60032,2470.31,2021-10-09T03:35:24Z
2021-10-09T01:37:05Z,42.805,6.029,13.3006,4.60032,2470.287,2021-10-09T03:38:28Z
2021-10-09T01:40:08Z,42.805,6.029,13.3008,4.60036,2470.334,2021-10-09T03:41:31Z
2021-10-09T01:43:11Z,42.805,6.029,13.3002,4.60047,2470.334,2021-10-09T03:44:34Z
2021-10-09T01:46:14Z,42.805,6.029,13.3004,4.60035,2470.297,2021-10-09T03:47:37Z
2021-10-09T01:49:17Z,42.805,6.029,13.3011,4.60042,2470.334,2021-10-09T03:50:40Z
2021-10-09T01:52:20Z,42.805,6.029,13.3012,4.60039,2470.297,2021-10-09T03:53:43Z
2021-10-09T01:55:23Z,42.805,6.029,13.3002,4.60029,2470.297,2021-10-09T03:56:46Z
2021-10-09T01:58:26Z,42.805,6.029,13.3000,4.60022,2470.297,2021-10-09T03:59:49Z
2021-10-09T02:01:30Z,42.805,6.029,13.3009,4.60029,2470.297,2021-10-09T04:02:52Z
2021-10-09T02:04:33Z,42.805,6.029,13.3004,4.60026,2470.31,2021-10-09T04:05:56Z
2021-10-09T02:07:36Z,42.805,6.029,13.3004,4.60029,2470.32,2021-10-09T04:08:59Z
2021-10-09T02:10:39Z,42.805,6.029,13.3002,4.60027,2470.273,2021-10-09T04:12:02Z
2021-10-09T02:13:42Z,42.805,6.029,13.3004,4.60023,2470.287,2021-10-09T04:15:05Z
2021-10-09T02:16:45Z,42.805,6.029,13.2998,4.60034,2470.32,2021-10-09T04:18:08Z
2021-10-09T02:19:48Z,42.805,6.029,13.3005,4.60029,2470.297,2021-10-09T04:21:11Z
2021-10-09T02:22:51Z,42.805,6.029,13.3008,4.60038,2470.31,2021-10-09T04:24:14Z
2021-10-09T02:25:54Z,42.805,6.029,13.3008,4.60057,2470.273,2021-10-09T04:27:17Z
2021-10-09T02:28:58Z,42.805,6.029,13.3006,4.60033,2470.273,2021-10-09T04:30:21Z
2021-10-09T02:32:01Z,42.805,6.029,13.3006,4.60037,2470.273,2021-10-09T04:33:24Z
2021-10-09T02:35:04Z,42.805,6.029,13.3002,4.60031,2470.343,2021-10-09T04:36:27Z
2021-10-09T02:38:07Z,42.805,6.029,13.3009,4.60035,2470.297,2021-10-09T04:39:30Z
2021-10-09T02:41:10Z,42.805,6.029,13.3016,4.60053,2470.31,2021-10-09T04:42:33Z
2021-10-09T02:44:13Z,42.805,6.029,13.3004,4.60039,2470.31,2021-10-09T04:45:36Z
2021-10-09T02:47:16Z,42.805,6.029,13.3003,4.60028,2470.264,2021-10-09T04:48:39Z
2021-10-09T02:50:19Z,42.805,6.029,13.3011,4.60031,2470.287,2021-10-09T04:51:42Z
2021-10-09T02:53:22Z,42.805,6.029,13.3006,4.60039,2470.25,2021-10-09T04:54:45Z
2021-10-09T02:56:26Z,42.805,6.029,13.3000,4.60027,2470.25,2021-10-09T04:57:49Z
2021-10-09T02:59:29Z,42.805,6.029,13.3006,4.60026,2470.297,2021-10-09T05:00:52Z
2021-10-09T03:02:32Z,42.805,6.029,13.3006,4.60049,2470.227,2021-10-09T05:03:55Z
2021-10-09T03:05:35Z,42.805,6.029,13.3003,4.60029,2470.31,2021-10-09T05:06:58Z
2021-10-09T03:08:38Z,42.805,6.029,13.3001,4.60026,2470.31,2021-10-09T05:10:01Z
2021-10-09T03:11:41Z,42.805,6.029,13.3009,4.60033,2470.25,2021-10-09T05:13:04Z
2021-10-09T03:14:44Z,42.805,6.029,13.3007,4.60039,2470.297,2021-10-09T05:16:07Z
2021-10-09T03:17:47Z,42.805,6.029,13.3006,4.60035,2470.287,2021-10-09T05:19:10Z
2021-10-09T03:20:51Z,42.805,6.029,13.3008,4.60035,2470.287,2021-10-09T05:22:14Z
2021-10-09T03:23:54Z,42.805,6.029,13.3001,4.60024,2470.31,2021-10-09T05:25:17Z
2021-10-09T03:26:57Z,42.805,6.029,13.3003,4.60033,2470.334,2021-10-09T05:28:20Z
2021-10-09T03:30:00Z,42.805,6.029,13.3002,4.60036,2470.297,2021-10-09T05:31:23Z
2021-10-09T03:33:03Z,42.805,6.029,13.3000,4.60027,2470.31,2021-10-09T05:34:26Z
2021-10-09T03:36:06Z,42.805,6.029,13.3002,4.60026,2470.32,2021-10-09T05:37:29Z
2021-10-09T03:39:09Z,42.805,6.029,13.3000,4.60027,2470.287,2021-10-09T05:40:32Z
2021-10-09T03:42:12Z,42.805,6.029,13.3006,4.60028,2470.287,2021-10-09T05:43:35Z
2021-10-09T03:45:15Z,42.805,6.029,13.2999,4.60022,2470.273,2021-10-09T05:46:38Z
2021-10-09T03:48:19Z,42.805,6.029,13.3000,4.60046,2470.31,2021-10-09T05:49:42Z
2021-10-09T03:51:22Z,42.805,6.029,13.3004,4.60038,2470.287,2021-10-09T05:52:45Z
2021-10-09T03:54:25Z,42.805,6.029,13.2999,4.60029,2470.287,2021-10-09T05:55:48Z
2021-10-09T03:57:28Z,42.805,6.029,13.3000,4.60021,2470.287,2021-10-09T05:58:51Z
2021-10-09T04:00:31Z,42.805,6.029,13.3003,4.60030,2470.297,2021-10-09T06:01:54Z
2021-10-09T04:03:34Z,42.805,6.029,13.2998,4.60026,2470.31,2021-10-09T06:04:57Z
2021-10-09T04:06:37Z,42.805,6.029,13.3002,4.60024,2470.334,2021-10-09T06:08:00Z
2021-10-09T04:09:40Z,42.805,6.029,13.3004,4.60026,2470.297,2021-10-09T06:11:03Z
2021-10-09T04:12:44Z,42.805,6.029,13.3000,4.60033,2470.273,2021-10-09T06:14:07Z
2021-10-09T04:15:47Z,42.805,6.029,13.2998,4.60036,2470.283,2021-10-09T06:17:10Z
2021-10-09T04:18:50Z,42.805,6.029,13.3001,4.60027,2470.334,2021-10-09T06:20:13Z
2021-10-09T04:21:53Z,42.805,6.029,13.2997,4.60029,2470.297,2021-10-09T06:23:16Z
2021-10-09T04:24:56Z,42.805,6.029,13.2998,4.60041,2470.273,2021-10-09T06:26:19Z
2021-10-09T04:27:59Z,42.805,6.029,13.3003,4.60033,2470.297,2021-10-09T06:29:22Z
2021-10-09T04:31:02Z,42.805,6.029,13.3006,4.60029,2470.297,2021-10-09T06:32:25Z
2021-10-09T04:34:05Z,42.805,6.029,13.2998,4.60029,2470.31,2021-10-09T06:35:28Z
2021-10-09T04:37:08Z,42.805,6.029,13.3009,4.60029,2470.297,2021-10-09T06:38:31Z
2021-10-09T04:40:12Z,42.805,6.029,13.3002,4.60028,2470.297,2021-10-09T06:41:35Z
2021-10-09T04:43:15Z,42.805,6.029,13.3004,4.60027,2470.357,2021-10-09T06:44:38Z
2021-10-09T04:46:18Z,42.805,6.029,13.2998,4.60028,2470.32,2021-10-09T06:47:41Z
2021-10-09T04:49:21Z,42.805,6.029,13.3004,4.60025,2470.32,2021-10-09T06:50:44Z
2021-10-09T04:52:24Z,42.805,6.029,13.3002,4.60027,2470.32,2021-10-09T06:53:47Z
2021-10-09T04:55:27Z,42.805,6.029,13.3000,4.60028,2470.334,2021-10-09T06:56:50Z
2021-10-09T04:58:30Z,42.805,6.029,13.3010,4.60025,2470.343,2021-10-09T06:59:53Z
2021-10-09T05:01:33Z,42.805,6.029,13.2998,4.60038,2470.334,2021-10-09T07:02:56Z
2021-10-09T05:04:37Z,42.805,6.029,13.3000,4.60022,2470.334,2021-10-09T07:06:00Z
2021-10-09T05:07:40Z,42.805,6.029,13.3009,4.60047,2470.357,2021-10-09T07:09:03Z
2021-10-09T05:10:43Z,42.805,6.029,13.3002,4.60030,2470.32,2021-10-09T07:12:06Z
2021-10-09T05:13:46Z,42.805,6.029,13.3004,4.60043,2470.32,2021-10-09T07:15:09Z
2021-10-09T05:16:49Z,42.805,6.029,13.3001,4.60029,2470.343,2021-10-09T07:18:12Z
2021-10-09T05:19:52Z,42.805,6.029,13.3000,4.60026,2470.343,2021-10-09T07:21:15Z
2021-10-09T05:22:55Z,42.805,6.029,13.2999,4.60034,2470.343,2021-10-09T07:24:18Z
2021-10-09T05:25:58Z,42.805,6.029,13.3001,4.60033,2470.366,2021-10-09T07:27:21Z
2021-10-09T05:29:01Z,42.805,6.029,13.2999,4.60021,2470.343,2021-10-09T07:30:24Z
2021-10-09T05:32:05Z,42.805,6.029,13.2996,4.60026,2470.366,2021-10-09T07:33:28Z
2021-10-09T05:35:08Z,42.805,6.029,13.3000,4.60022,2470.38,2021-10-09T07:36:31Z
2021-10-09T05:38:11Z,42.805,6.029,13.3004,4.60026,2470.38,2021-10-09T07:39:34Z
2021-10-09T05:41:14Z,42.805,6.029,13.3001,4.60029,2470.38,2021-10-09T07:42:37Z
2021-10-09T05:44:17Z,42.805,6.029,13.3006,4.60033,2470.38,2021-10-09T07:45:40Z
2021-10-09T05:47:20Z,42.805,6.029,13.2999,4.60036,2470.357,2021-10-09T07:48:43Z
2021-10-09T05:50:23Z,42.805,6.029,13.3001,4.60039,2470.38,2021-10-09T07:51:46Z
2021-10-09T05:53:26Z,42.805,6.029,13.2999,4.60024,2470.437,2021-10-09T07:54:49Z
2021-10-09T05:56:30Z,42.805,6.029,13.3000,4.60028,2470.404,2021-10-09T07:57:53Z
2021-10-09T05:59:33Z,42.805,6.029,13.3011,4.60040,2470.38,2021-10-09T08:00:56Z
2021-10-09T06:02:36Z,42.805,6.029,13.3006,4.60052,2470.38,2021-10-09T08:03:59Z
2021-10-09T06:05:39Z,42.805,6.029,13.3003,4.60031,2470.404,2021-10-09T08:07:02Z
2021-10-09T06:08:42Z,42.805,6.029,13.3002,4.60025,2470.404,2021-10-09T08:10:05Z
2021-10-09T06:11:45Z,42.805,6.029,13.2998,4.60031,2470.404,2021-10-09T08:13:08Z
2021-10-09T06:14:48Z,42.805,6.029,13.2998,4.60022,2470.427,2021-10-09T08:16:11Z
2021-10-09T06:17:51Z,42.805,6.029,13.3006,4.60053,2470.413,2021-10-09T08:19:14Z
2021-10-09T06:20:54Z,42.805,6.029,13.3009,4.60039,2470.427,2021-10-09T08:22:17Z
2021-10-09T06:23:58Z,42.805,6.029,13.3004,4.60028,2470.437,2021-10-09T08:25:21Z
2021-10-09T06:27:01Z,42.805,6.029,13.3000,4.60023,2470.39,2021-10-09T08:28:24Z
2021-10-09T06:30:04Z,42.805,6.029,13.3004,4.60033,2470.413,2021-10-09T08:31:27Z
2021-10-09T06:33:07Z,42.805,6.029,13.3006,4.60029,2470.399,2021-10-09T08:34:30Z
2021-10-09T06:36:10Z,42.805,6.029,13.3005,4.60032,2470.404,2021-10-09T08:37:33Z
2021-10-09T06:39:13Z,42.805,6.029,13.3006,4.60030,2470.427,2021-10-09T08:40:36Z
2021-10-09T06:42:16Z,42.805,6.029,13.3002,4.60033,2470.45,2021-10-09T08:43:39Z
2021-10-09T06:45:19Z,42.805,6.029,13.3002,4.60051,2470.474,2021-10-09T08:46:42Z
2021-10-09T06:48:23Z,42.805,6.029,13.3019,4.60050,2470.474,2021-10-09T08:49:46Z
2021-10-09T06:51:26Z,42.805,6.029,13.2999,4.60038,2470.497,2021-10-09T08:52:49Z
2021-10-09T06:54:29Z,42.805,6.029,13.3006,4.60032,2470.46,2021-10-09T08:55:52Z
2021-10-09T06:57:32Z,42.805,6.029,13.3011,4.60044,2470.474,2021-10-09T08:58:55Z
2021-10-09T07:00:35Z,42.805,6.029,13.3004,4.60036,2470.46,2021-10-09T09:01:58Z
2021-10-09T07:03:38Z,42.805,6.029,13.3006,4.60038,2470.474,2021-10-09T09:05:01Z
2021-10-09T07:06:41Z,42.805,6.029,13.3004,4.60026,2470.497,2021-10-09T09:08:04Z
2021-10-09T07:09:44Z,42.805,6.029,13.3004,4.60044,2470.46,2021-10-09T09:11:07Z
2021-10-09T07:12:47Z,42.805,6.029,13.3002,4.60039,2470.46,2021-10-09T09:14:10Z
2021-10-09T07:15:51Z,42.805,6.029,13.3022,4.60039,2470.483,2021-10-09T09:17:14Z
2021-10-09T07:18:54Z,42.805,6.029,13.3004,4.60055,2470.507,2021-10-09T09:20:17Z
2021-10-09T07:21:57Z,42.805,6.029,13.3011,4.60052,2470.483,2021-10-09T09:23:20Z
2021-10-09T07:25:00Z,42.805,6.029,13.3009,4.60055,2470.497,2021-10-09T09:26:23Z
2021-10-09T07:28:03Z,42.805,6.029,13.3006,4.60038,2470.497,2021-10-09T09:29:26Z
2021-10-09T07:31:06Z,42.805,6.029,13.3011,4.60051,2470.507,2021-10-09T09:32:29Z
2021-10-09T07:34:09Z,42.805,6.029,13.3014,4.60046,2470.483,2021-10-09T09:35:32Z
2021-10-09T07:37:12Z,42.805,6.029,13.3015,4.60054,2470.46,2021-10-09T09:38:35Z
2021-10-09T07:40:16Z,42.805,6.029,13.3013,4.60066,2470.483,2021-10-09T09:41:39Z
2021-10-09T07:43:19Z,42.805,6.029,13.3013,4.60059,2470.507,2021-10-09T09:44:42Z
2021-10-09T07:46:22Z,42.805,6.029,13.3007,4.60069,2470.52,2021-10-09T09:47:45Z
2021-10-09T07:49:25Z,42.805,6.029,13.3019,4.60047,2470.52,2021-10-09T09:50:48Z
2021-10-09T07:52:28Z,42.805,6.029,13.3009,4.60052,2470.507,2021-10-09T09:53:51Z
2021-10-09T07:55:31Z,42.805,6.029,13.3009,4.60047,2470.52,2021-10-09T09:56:54Z
2021-10-09T07:58:34Z,42.805,6.029,13.3016,4.60049,2470.567,2021-10-09T09:59:57Z
2021-10-09T08:01:37Z,42.805,6.029,13.3009,4.60057,2470.52,2021-10-09T10:03:00Z
2021-10-09T08:04:41Z,42.805,6.029,13.3017,4.60057,2470.567,2021-10-09T10:06:03Z
2021-10-09T08:07:44Z,42.805,6.029,13.3022,4.60060,2470.53,2021-10-09T10:09:07Z
2021-10-09T08:10:47Z,42.805,6.029,13.3015,4.60049,2470.483,2021-10-09T10:12:10Z
2021-10-09T08:13:50Z,42.805,6.029,13.3006,4.60043,2470.53,2021-10-09T10:15:13Z
2021-10-09T08:16:53Z,42.805,6.029,13.3007,4.60031,2470.553,2021-10-09T10:18:16Z
2021-10-09T08:19:56Z,42.805,6.029,13.3004,4.60034,2470.567,2021-10-09T10:21:19Z
2021-10-09T08:22:59Z,42.805,6.029,13.3009,4.60046,2470.553,2021-10-09T10:24:22Z
2021-10-09T08:26:02Z,42.805,6.029,13.3004,4.60033,2470.53,2021-10-09T10:27:25Z
2021-10-09T08:29:05Z,42.805,6.029,13.3013,4.60058,2470.553,2021-10-09T10:30:28Z
2021-10-09T08:32:09Z,42.805,6.029,13.3016,4.60057,2470.53,2021-10-09T10:33:32Z
2021-10-09T08:35:12Z,42.805,6.029,13.3018,4.60040,2470.544,2021-10-09T10:36:35Z
2021-10-09T08:38:15Z,42.805,6.029,13.3016,4.60067,2470.53,2021-10-09T10:39:38Z
2021-10-09T08:41:18Z,42.805,6.029,13.3006,4.60051,2470.544,2021-10-09T10:42:41Z
2021-10-09T08:44:21Z,42.805,6.029,13.3023,4.60059,2470.53,2021-10-09T10:45:44Z
2021-10-09T08:47:24Z,42.805,6.029,13.3009,4.60061,2470.507,2021-10-09T10:48:47Z
2021-10-09T08:50:27Z,42.805,6.029,13.3009,4.60057,2470.577,2021-10-09T10:51:50Z
2021-10-09T08:53:30Z,42.805,6.029,13.3016,4.60057,2470.567,2021-10-09T10:54:53Z
2021-10-09T08:56:34Z,42.805,6.029,13.3009,4.60058,2470.544,2021-10-09T10:57:57Z
2021-10-09T08:59:37Z,42.805,6.029,13.3006,4.60039,2470.53,2021-10-09T11:01:00Z
2021-10-09T09:02:40Z,42.805,6.029,13.3006,4.60046,2470.553,2021-10-09T11:04:03Z
2021-10-09T09:05:43Z,42.805,6.029,13.3019,4.60046,2470.53,2021-10-09T11:07:06Z
2021-10-09T09:08:46Z,42.805,6.029,13.3009,4.60049,2470.544,2021-10-09T11:10:09Z
2021-10-09T09:11:49Z,42.805,6.029,13.3026,4.60074,2470.553,2021-10-09T11:13:12Z
2021-10-09T09:14:52Z,42.805,6.029,13.3021,4.60085,2470.553,2021-10-09T11:16:15Z
2021-10-09T09:17:55Z,42.805,6.029,13.3019,4.60074,2470.553,2021-10-09T11:19:18Z
2021-10-09T09:20:59Z,42.805,6.029,13.3010,4.60053,2470.53,2021-10-09T11:22:22Z
2021-10-09T09:24:02Z,42.805,6.029,13.3006,4.60059,2470.544,2021-10-09T11:25:25Z
2021-10-09T09:27:05Z,42.805,6.029,13.3024,4.60046,2470.544,2021-10-09T11:28:28Z
2021-10-09T09:30:08Z,42.805,6.029,13.3014,4.60046,2470.553,2021-10-09T11:31:31Z
2021-10-09T09:33:11Z,42.805,6.029,13.2996,4.60026,2470.567,2021-10-09T11:34:34Z
2021-10-09T09:36:14Z,42.805,6.029,13.3004,4.60031,2470.553,2021-10-09T11:37:37Z
2021-10-09T09:39:17Z,42.805,6.029,13.3001,4.60032,2470.544,2021-10-09T11:40:40Z
2021-10-09T09:42:20Z,42.805,6.029,13.3007,4.60033,2470.53,2021-10-09T11:43:43Z
2021-10-09T09:45:24Z,42.805,6.029,13.3006,4.60046,2470.553,2021-10-09T11:46:47Z
2021-10-09T09:48:27Z,42.805,6.029,13.3019,4.60042,2470.567,2021-10-09T11:49:50Z
2021-10-09T09:51:30Z,42.805,6.029,13.3021,4.60063,2470.553,2021-10-09T11:52:53Z
2021-10-09T09:54:33Z,42.805,6.029,13.3012,4.60061,2470.52,2021-10-09T11:55:56Z
2021-10-09T09:57:36Z,42.805,6.029,13.3010,4.60065,2470.53,2021-10-09T11:58:59Z
2021-10-09T10:00:39Z,42.805,6.029,13.3012,4.60067,2470.53,2021-10-09T12:02:02Z
2021-10-09T10:03:42Z,42.805,6.029,13.3009,4.60078,2470.544,2021-10-09T12:05:05Z
2021-10-09T10:06:45Z,42.805,6.029,13.3013,4.60056,2470.53,2021-10-09T12:08:08Z
2021-10-09T10:09:49Z,42.805,6.029,13.3015,4.60069,2470.53,2021-10-09T12:11:12Z
2021-10-09T10:12:52Z,42.805,6.029,13.3028,4.60077,2470.507,2021-10-09T12:14:15Z
2021-10-09T10:15:55Z,42.805,6.029,13.3016,4.60069,2470.507,2021-10-09T12:17:18Z
2021-10-09T10:18:58Z,42.805,6.029,13.3017,4.60045,2470.52,2021-10-09T12:20:21Z
2021-10-09T10:22:01Z,42.805,6.029,13.3026,4.60051,2470.483,2021-10-09T12:23:24Z
2021-10-09T10:25:04Z,42.805,6.029,13.3025,4.60067,2470.52,2021-10-09T12:26:27Z
2021-10-09T10:28:07Z,42.805,6.029,13.3015,4.60069,2470.507,2021-10-09T12:29:30Z
2021-10-09T10:31:10Z,42.805,6.029,13.3011,4.60066,2470.52,2021-10-09T12:32:33Z
2021-10-09T10:34:14Z,42.805,6.029,13.3013,4.60063,2470.507,2021-10-09T12:35:36Z
2021-10-09T10:37:17Z,42.805,6.029,13.3017,4.60044,2470.52,2021-10-09T12:38:40Z
2021-10-09T10:40:20Z,42.805,6.029,13.3038,4.60049,2470.483,2021-10-09T12:41:43Z
2021-10-09T10:43:23Z,42.805,6.029,13.3019,4.60062,2470.53,2021-10-09T12:44:46Z
2021-10-09T10:46:26Z,42.805,6.029,13.3010,4.60068,2470.507,2021-10-09T12:47:49Z
2021-10-09T10:49:29Z,42.805,6.029,13.3019,4.60056,2470.497,2021-10-09T12:50:52Z
2021-10-09T10:52:32Z,42.805,6.029,13.3032,4.60062,2470.544,2021-10-09T12:53:55Z
2021-10-09T10:55:35Z,42.805,6.029,13.3016,4.60067,2470.474,2021-10-09T12:56:58Z
2021-10-09T10:58:39Z,42.805,6.029,13.3010,4.60052,2470.507,2021-10-09T13:00:02Z
2021-10-09T11:01:42Z,42.805,6.029,13.3014,4.60064,2470.497,2021-10-09T13:03:05Z
2021-10-09T11:04:45Z,42.805,6.029,13.3008,4.60061,2470.497,2021-10-09T13:06:08Z
2021-10-09T11:07:48Z,42.805,6.029,13.3005,4.60063,2470.474,2021-10-09T13:09:11Z
2021-10-09T11:10:51Z,42.805,6.029,13.3025,4.60074,2470.497,2021-10-09T13:12:14Z
2021-10-09T11:13:54Z,42.805,6.029,13.3018,4.60052,2470.497,2021-10-09T13:15:17Z
2021-10-09T11:16:57Z,42.805,6.029,13.3009,4.60044,2470.488,2021-10-09T13:18:20Z
2021-10-09T11:20:00Z,42.805,6.029,13.3013,4.60057,2470.497,2021-10-09T13:21:23Z
2021-10-09T11:23:04Z,42.805,6.029,13.3021,4.60072,2470.507,2021-10-09T13:24:26Z
2021-10-09T11:26:07Z,42.805,6.029,13.3018,4.60074,2470.483,2021-10-09T13:27:30Z
2021-10-09T11:29:10Z,42.805,6.029,13.3009,4.60062,2470.497,2021-10-09T13:30:33Z
2021-10-09T11:32:13Z,42.805,6.029,13.3013,4.60054,2470.46,2021-10-09T13:33:36Z
2021-10-09T11:35:16Z,42.805,6.029,13.3017,4.60060,2470.474,2021-10-09T13:36:39Z
2021-10-09T11:38:19Z,42.805,6.029,13.3006,4.60063,2470.474,2021-10-09T13:39:42Z
2021-10-09T11:41:22Z,42.805,6.029,13.3017,4.60066,2470.474,2021-10-09T13:42:45Z
2021-10-09T11:44:25Z,42.805,6.029,13.3001,4.60053,2470.427,2021-10-09T13:45:48Z
2021-10-09T11:47:29Z,42.805,6.029,13.3015,4.60067,2470.45,2021-10-09T13:48:52Z
2021-10-09T11:50:32Z,42.805,6.029,13.3029,4.60079,2470.474,2021-10-09T13:51:55Z
2021-10-09T11:53:35Z,42.805,6.029,13.3002,4.60051,2470.474,2021-10-09T13:54:58Z
2021-10-09T11:56:38Z,42.805,6.029,13.3019,4.60075,2470.474,2021-10-09T13:58:01Z
2021-10-09T11:59:41Z,42.805,6.029,13.3008,4.60045,2470.46,2021-10-09T14:01:04Z
2021-10-09T12:02:44Z,42.805,6.029,13.3012,4.60044,2470.427,2021-10-09T14:04:07Z
2021-10-09T12:05:47Z,42.805,6.029,13.3017,4.60062,2470.413,2021-10-09T14:07:10Z
2021-10-09T12:08:50Z,42.805,6.029,13.3016,4.60076,2470.46,2021-10-09T14:10:13Z
2021-10-09T12:11:53Z,42.805,6.029,13.3036,4.60064,2470.437,2021-10-09T14:13:16Z
2021-10-09T12:14:57Z,42.805,6.029,13.3004,4.60045,2470.437,2021-10-09T14:16:20Z
2021-10-09T12:18:00Z,42.805,6.029,13.3001,4.60023,2470.413,2021-10-09T14:19:23Z
2021-10-09T12:21:03Z,42.805,6.029,13.3006,4.60039,2470.437,2021-10-09T14:22:26Z
2021-10-09T12:24:06Z,42.805,6.029,13.3009,4.60039,2470.413,2021-10-09T14:25:29Z
2021-10-09T12:27:09Z,42.805,6.029,13.2999,4.60040,2470.427,2021-10-09T14:28:32Z
2021-10-09T12:30:12Z,42.805,6.029,13.3011,4.60054,2470.413,2021-10-09T14:31:35Z
2021-10-09T12:33:15Z,42.805,6.029,13.3016,4.60057,2470.413,2021-10-09T14:34:38Z
2021-10-09T12:36:18Z,42.805,6.029,13.3020,4.60057,2470.427,2021-10-09T14:37:41Z
2021-10-09T12:39:22Z,42.805,6.029,13.3039,4.60079,2470.404,2021-10-09T14:40:45Z
2021-10-09T12:42:25Z,42.805,6.029,13.3029,4.60072,2470.413,2021-10-09T14:43:48Z
2021-10-09T12:45:28Z,42.805,6.029,13.3027,4.60107,2470.404,2021-10-09T14:46:51Z
2021-10-09T12:48:31Z,42.805,6.029,13.3014,4.60079,2470.404,2021-10-09T14:49:54Z
2021-10-09T12:51:34Z,42.805,6.029,13.3029,4.60084,2470.413,2021-10-09T14:52:57Z
2021-10-09T12:54:37Z,42.805,6.029,13.3020,4.60074,2470.404,2021-10-09T14:56:00Z
2021-10-09T12:57:40Z,42.805,6.029,13.3035,4.60046,2470.413,2021-10-09T14:59:03Z
2021-10-09T13:00:43Z,42.805,6.029,13.3014,4.60093,2470.441,2021-10-09T15:02:06Z
2021-10-09T13:03:47Z,42.805,6.029,13.3037,4.60037,2470.427,2021-10-09T15:05:10Z
2021-10-09T13:06:50Z,42.805,6.029,13.3021,4.60067,2470.39,2021-10-09T15:08:13Z
2021-10-09T13:09:53Z,42.805,6.029,13.3026,4.60081,2470.413,2021-10-09T15:11:16Z
2021-10-09T13:12:56Z,42.805,6.029,13.3040,4.60089,2470.404,2021-10-09T15:14:19Z
2021-10-09T13:15:59Z,42.805,6.029,13.3051,4.60088,2470.404,2021-10-09T15:17:22Z
2021-10-09T13:19:02Z,42.805,6.029,13.3036,4.60117,2470.45,2021-10-09T15:20:25Z
2021-10-09T13:22:05Z,42.805,6.029,13.3049,4.60076,2470.404,2021-10-09T15:23:28Z
2021-10-09T13:25:08Z,42.805,6.029,13.3039,4.60076,2470.404,2021-10-09T15:26:31Z
2021-10-09T13:28:12Z,42.805,6.029,13.3044,4.60081,2470.38,2021-10-09T15:29:35Z
2021-10-09T13:31:15Z,42.805,6.029,13.3046,4.60085,2470.366,2021-10-09T15:32:38Z
2021-10-09T13:34:18Z,42.805,6.029,13.3048,4.60059,2470.376,2021-10-09T15:35:41Z
2021-10-09T13:37:21Z,42.805,6.029,13.3036,4.60088,2470.413,2021-10-09T15:38:44Z
2021-10-09T13:40:24Z,42.805,6.029,13.3046,4.60097,2470.39,2021-10-09T15:41:47Z
2021-10-09T13:43:27Z,42.805,6.029,13.3036,4.60080,2470.38,2021-10-09T15:44:50Z
2021-10-09T13:46:30Z,42.805,6.029,13.3020,4.60084,2470.38,2021-10-09T15:47:53Z
2021-10-09T13:49:33Z,42.805,6.029,13.3039,4.60096,2470.39,2021-10-09T15:50:56Z
2021-10-09T13:52:37Z,42.805,6.029,13.3038,4.60068,2470.38,2021-10-09T15:54:00Z
2021-10-09T13:55:40Z,42.805,6.029,13.3019,4.60103,2470.39,2021-10-09T15:57:03Z
2021-10-09T13:58:43Z,42.805,6.029,13.3029,4.60102,2470.366,2021-10-09T16:00:06Z
2021-10-09T14:01:46Z,42.805,6.029,13.3014,4.60091,2470.343,2021-10-09T16:03:09Z
2021-10-09T14:04:49Z,42.805,6.029,13.3034,4.60064,2470.357,2021-10-09T16:06:12Z
2021-10-09T14:07:52Z,42.805,6.029,13.3044,4.60062,2470.404,2021-10-09T16:09:15Z
2021-10-09T14:10:55Z,42.805,6.029,13.3031,4.60074,2470.357,2021-10-09T16:12:18Z
2021-10-09T14:13:58Z,42.805,6.029,13.3007,4.60086,2470.366,2021-10-09T16:15:21Z
2021-10-09T14:17:02Z,42.805,6.029,13.3007,4.60076,2470.366,2021-10-09T16:18:25Z
2021-10-09T14:20:05Z,42.805,6.029,13.3019,4.60109,2470.366,2021-10-09T16:21:28Z
2021-10-09T14:23:08Z,42.805,6.029,13.3019,4.60099,2470.357,2021-10-09T16:24:31Z
2021-10-09T14:26:11Z,42.805,6.029,13.3009,4.60069,2470.38,2021-10-09T16:27:34Z
2021-10-09T14:29:14Z,42.805,6.029,13.3014,4.60052,2470.366,2021-10-09T16:30:37Z
2021-10-09T14:32:17Z,42.805,6.029,13.3017,4.60080,2470.366,2021-10-09T16:33:40Z
2021-10-09T14:35:20Z,42.805,6.029,13.3006,4.60056,2470.366,2021-10-09T16:36:43Z
2021-10-09T14:38:23Z,42.805,6.029,13.3002,4.60073,2470.38,2021-10-09T16:39:46Z
2021-10-09T14:41:27Z,42.805,6.029,13.3009,4.60078,2470.343,2021-10-09T16:42:50Z
2021-10-09T14:44:30Z,42.805,6.029,13.3009,4.60069,2470.343,2021-10-09T16:45:53Z
2021-10-09T14:47:33Z,42.805,6.029,13.3008,4.60095,2470.343,2021-10-09T16:48:56Z
2021-10-09T14:50:36Z,42.805,6.029,13.3006,4.60093,2470.343,2021-10-09T16:51:59Z
2021-10-09T14:53:39Z,42.805,6.029,13.3019,4.60077,2470.366,2021-10-09T16:55:02Z
2021-10-09T14:56:42Z,42.805,6.029,13.3008,4.60059,2470.343,2021-10-09T16:58:05Z
2021-10-09T14:59:45Z,42.805,6.029,13.3009,4.60074,2470.343,2021-10-09T17:01:08Z
2021-10-09T15:02:48Z,42.805,6.029,13.3011,4.60091,2470.343,2021-10-09T17:04:11Z